Weather History for Sidney-Richland, MT

Change the Weather History Date:

Wednesday, October 17, 2012

  Actual Average Record
Temperature  
Mean Temperature 48 °F -  
Max Temperature 53 °F 57 °F 82 °F (2003)
Min Temperature 42 °F 31 °F 17 °F (1919)
Degree Days  
Heating Degree Days 18    
Moisture  
Dew Point 29 °F    
Average Humidity 54    
Maximum Humidity 87    
Minimum Humidity 28    
Precipitation  
Precipitation 0.16 in - - ()
Sea Level Pressure  
Sea Level Pressure 29.57 in    
Wind  
Wind Speed 29 mph (WNW)    
Max Wind Speed 39 mph    
Max Gust Speed 51 mph    
Visibility 9 miles    
Events      
Averages and records for this station are not official NWS values.
T = Trace of Precipitation, MM = Missing Value Source: NWS Daily Summary

Daily Weather History Graph

Daily Weather History Graph

Search for Another Location

Airport:

Trip Planner

Search our weather history database for the weather conditions in past years. The results will help you decide how hot, cold, wet, or windy it might be!

Date:

Astronomy

Oct. 17, 2012 Rise Set
Actual Time 7:19 AM MDT 6:03 PM MDT
Civil Twilight 6:48 AM MDT 6:35 PM MDT
Nautical Twilight 6:12 AM MDT 7:10 PM MDT
Astronomical Twilight 5:36 AM MDT 7:46 PM MDT
Moon 10:10 AM MDT (10/17) 7:27 PM MDT (10/17)
Length of Visible Light 11h 46m
Length of Day
10h 44m
Waxing Crescent, 7% of the Moon is Illuminated
Oct 17
Waxing Crescent
Oct 21
First Quarter
Oct 29
Full
Nov 6
Last Quarter
Nov 13
New

Hourly Weather History & Observations

Time (MDT) Temp. Windchill Dew Point Humidity Pressure Visibility Wind Dir Wind Speed Gust Speed Precip Events Conditions
12:15 AM 44.6 °F 35.1 °F 37.4 °F 76% 29.29 in 10.0 mi West 27.6 mph 44.9 mph N/A   Overcast
12:35 AM 44.6 °F 34.2 °F 37.4 °F 76% 29.27 in 10.0 mi West 33.4 mph 44.9 mph N/A   Scattered Clouds
12:55 AM 44.6 °F 36.1 °F 39.2 °F 81% 29.30 in 10.0 mi West 21.9 mph 38.0 mph N/A   Mostly Cloudy
1:15 AM 44.6 °F 35.1 °F 39.2 °F 81% 29.30 in 10.0 mi West 27.6 mph 35.7 mph N/A   Overcast
1:35 AM 44.6 °F 34.4 °F 41.0 °F 87% 29.32 in 8.0 mi WNW 32.2 mph 43.7 mph 0.01 in   Overcast
1:55 AM 44.6 °F 35.1 °F 39.2 °F 81% 29.34 in 5.0 mi WNW 27.6 mph 48.3 mph 0.02 in   Mostly Cloudy
2:15 AM 44.6 °F 35.1 °F 39.2 °F 81% 29.37 in 3.0 mi WNW 27.6 mph 42.6 mph 0.02 in   Overcast
2:35 AM 42.8 °F 31.4 °F 39.2 °F 87% 29.38 in 4.0 mi NW 35.7 mph 42.6 mph 0.05 in   Overcast
2:55 AM 42.8 °F 31.3 °F 39.2 °F 87% 29.39 in 2.5 mi WNW 36.8 mph 50.6 mph 0.09 in   Overcast
3:15 AM 42.8 °F 31.6 °F 39.2 °F 87% 29.40 in 3.0 mi NW 34.5 mph 47.2 mph 0.03 in   Overcast
3:35 AM 42.8 °F 32.3 °F 39.2 °F 87% 29.42 in 4.0 mi WNW 29.9 mph 43.7 mph 0.05 in   Overcast
4:15 AM 42.8 °F 31.9 °F 37.4 °F 81% 29.43 in 7.0 mi WNW 32.2 mph 44.9 mph N/A   Overcast
4:35 AM 42.8 °F 34.0 °F 37.4 °F 81% 29.45 in 10.0 mi West 20.7 mph 31.1 mph N/A   Overcast
4:55 AM 44.6 °F 35.9 °F 37.4 °F 76% 29.46 in 10.0 mi West 23.0 mph 28.8 mph N/A   Overcast
5:15 AM 44.6 °F 35.5 °F 35.6 °F 71% 29.47 in 10.0 mi WNW 25.3 mph 34.5 mph N/A   Overcast
5:55 AM 44.6 °F 35.3 °F 33.8 °F 66% 29.48 in 10.0 mi WNW 26.5 mph 33.4 mph N/A   Overcast
6:15 AM 44.6 °F 35.7 °F 33.8 °F 66% 29.50 in 10.0 mi WNW 24.2 mph 33.4 mph N/A   Overcast
6:35 AM 44.6 °F 35.1 °F 30.2 °F 57% 29.50 in 10.0 mi WNW 27.6 mph 40.3 mph N/A   Mostly Cloudy
6:55 AM 44.6 °F 36.1 °F 28.4 °F 53% 29.51 in 10.0 mi WNW 21.9 mph 42.6 mph N/A   Mostly Cloudy
7:15 AM 44.6 °F 35.9 °F 28.4 °F 53% 29.52 in 10.0 mi West 23.0 mph 32.2 mph N/A   Scattered Clouds
7:35 AM 42.8 °F 34.3 °F 28.4 °F 57% 29.54 in 10.0 mi West 19.6 mph 28.8 mph N/A   Clear
7:55 AM 42.8 °F 33.8 °F 28.4 °F 57% 29.55 in 10.0 mi West 21.9 mph 29.9 mph N/A   Clear
8:15 AM 42.8 °F 34.0 °F 28.4 °F 57% 29.55 in 10.0 mi West 20.7 mph 31.1 mph N/A   Clear
8:35 AM 42.8 °F 34.5 °F 28.4 °F 57% 29.57 in 10.0 mi WNW 18.4 mph 28.8 mph N/A   Clear
8:55 AM 42.8 °F 34.3 °F 28.4 °F 57% 29.58 in 10.0 mi WNW 19.6 mph 27.6 mph N/A   Clear
9:15 AM 42.8 °F 34.3 °F 28.4 °F 57% 29.59 in 10.0 mi WNW 19.6 mph 27.6 mph N/A   Clear
9:35 AM 42.8 °F 32.9 °F 28.4 °F 57% 29.59 in 10.0 mi WNW 26.5 mph 33.4 mph N/A   Clear
9:55 AM 42.8 °F 33.3 °F 26.6 °F 53% 29.60 in 10.0 mi WNW 24.2 mph 33.4 mph N/A   Clear
10:15 AM 44.6 °F 35.3 °F 26.6 °F 49% 29.60 in 10.0 mi WNW 26.5 mph 36.8 mph N/A   Clear
11:15 AM 46.4 °F 37.4 °F 26.6 °F 46% 29.60 in 10.0 mi NW 28.8 mph 41.4 mph N/A   Clear
11:35 AM 48.2 °F - 26.6 °F 43% 29.59 in 10.0 mi WNW 31.1 mph 39.1 mph N/A   Clear
11:55 AM 50.0 °F - 24.8 °F 37% 29.59 in 10.0 mi NW 36.8 mph 49.5 mph N/A   Clear
12:15 PM 51.8 °F - 23.0 °F 33% 29.58 in 10.0 mi NW 39.1 mph 49.5 mph N/A   Clear
12:35 PM 51.8 °F - 23.0 °F 33% 29.58 in 10.0 mi WNW 36.8 mph 47.2 mph N/A   Clear
12:55 PM 53.6 °F - 21.2 °F 28% 29.58 in 10.0 mi WNW 36.8 mph 47.2 mph N/A   Clear
1:35 PM 51.8 °F - 21.2 °F 30% 29.59 in 10.0 mi NW 36.8 mph 50.6 mph N/A   Clear
1:55 PM 51.8 °F - 24.8 °F 35% 29.60 in 10.0 mi NW 34.5 mph 47.2 mph N/A   Clear
2:15 PM 51.8 °F - 24.8 °F 35% 29.60 in 10.0 mi NW 36.8 mph 47.2 mph N/A   Clear
2:35 PM 51.8 °F - 24.8 °F 35% 29.60 in 10.0 mi WNW 36.8 mph 47.2 mph N/A   Clear
2:55 PM 51.8 °F - 24.8 °F 35% 29.60 in 10.0 mi WNW 34.5 mph 47.2 mph N/A   Partly Cloudy
3:15 PM 51.8 °F - 24.8 °F 35% 29.61 in 10.0 mi NW 32.2 mph 44.9 mph N/A   Clear
3:35 PM 51.8 °F - 23.0 °F 33% 29.61 in 10.0 mi WNW 35.7 mph 50.6 mph N/A   Partly Cloudy
3:55 PM 51.8 °F - 24.8 °F 35% 29.62 in 10.0 mi NW 26.5 mph 43.7 mph N/A   Mostly Cloudy
4:15 PM 51.8 °F - 23.0 °F 33% 29.63 in 10.0 mi NW 34.5 mph 48.3 mph N/A   Overcast
4:35 PM 50.0 °F - 23.0 °F 35% 29.63 in 10.0 mi NW 29.9 mph 48.3 mph N/A   Overcast
4:55 PM 48.2 °F - 23.0 °F 37% 29.65 in 10.0 mi NW 33.4 mph 44.9 mph N/A   Overcast
5:15 PM 48.2 °F - 23.0 °F 37% 29.65 in 10.0 mi NW 38.0 mph 50.6 mph N/A   Overcast
5:55 PM 46.4 °F 37.2 °F 23.0 °F 40% 29.68 in 10.0 mi NW 29.9 mph 43.7 mph N/A   Overcast
6:15 PM 46.4 °F 37.2 °F 24.8 °F 43% 29.69 in 10.0 mi NW 29.9 mph 43.7 mph N/A   Overcast
6:35 PM 46.4 °F 37.0 °F 24.8 °F 43% 29.69 in 10.0 mi NW 31.1 mph 38.0 mph N/A   Overcast
6:55 PM 46.4 °F 36.9 °F 24.8 °F 43% 29.70 in 10.0 mi NW 32.2 mph 42.6 mph N/A   Overcast
7:15 PM 46.4 °F 36.9 °F 24.8 °F 43% 29.71 in 10.0 mi WNW 32.2 mph 41.4 mph N/A   Mostly Cloudy
7:35 PM 46.4 °F 37.4 °F 24.8 °F 43% 29.72 in 10.0 mi NW 28.8 mph 41.4 mph N/A   Mostly Cloudy
7:55 PM 44.6 °F 35.3 °F 24.8 °F 46% 29.73 in 10.0 mi NW 26.5 mph 35.7 mph N/A   Overcast
8:15 PM 44.6 °F 35.3 °F 24.8 °F 46% 29.73 in 10.0 mi NW 26.5 mph 41.4 mph N/A   Overcast
8:35 PM 44.6 °F 35.5 °F 24.8 °F 46% 29.73 in 10.0 mi NW 25.3 mph 35.7 mph N/A   Overcast
8:55 PM 44.6 °F 34.9 °F 24.8 °F 46% 29.74 in 10.0 mi NW 28.8 mph 38.0 mph N/A   Overcast
9:15 PM 44.6 °F 35.5 °F 26.6 °F 49% 29.75 in 10.0 mi NW 25.3 mph 40.3 mph N/A   Overcast
9:55 PM 44.6 °F 35.5 °F 26.6 °F 49% 29.76 in 10.0 mi NW 25.3 mph 39.1 mph N/A   Overcast
10:35 PM 44.6 °F 35.5 °F 26.6 °F 49% 29.76 in 10.0 mi NW 25.3 mph 34.5 mph N/A   Overcast
10:55 PM 44.6 °F 34.9 °F 26.6 °F 49% 29.77 in 10.0 mi NW 28.8 mph 40.3 mph N/A   Overcast
11:15 PM 44.6 °F 34.7 °F 26.6 °F 49% 29.76 in 10.0 mi NW 29.9 mph 36.8 mph N/A   Overcast
11:35 PM 44.6 °F 35.3 °F 26.6 °F 49% 29.77 in 10.0 mi WNW 26.5 mph 38.0 mph N/A   Overcast
11:55 PM 44.6 °F 35.5 °F 28.4 °F 53% 29.78 in 10.0 mi NW 25.3 mph 35.7 mph N/A   Overcast